Weather Service Report


382 
FPUS83 KFGF 010831
OPUFGF
PRAIRIE TO PINES WEATHER ROUNDUP
NATIONAL WEATHER SERVICE EASTERN NORTH DAKOTA/GRAND FORKS ND
300 AM CDT TUE SEP 01 2015

 **SATELLITE DATA USED TO AUGMENT SKY COVER AT AUTOMATED STATIONS**
 *****  WEATHER ACROSS EASTERN NORTH DAKOTA  *****
  
CITY           SKY/WX    TMP DP  RH WIND       PRES   REMARKS
GRAND FORKS    PTCLDY    56  53  90 SW5       29.85S                  
GRAND FORKS AF PTCLDY    53  50  90 SW6       29.86S                  
GRAND CITY NWS   N/A     57 N/A N/A W5          N/A                   
BUXTON         NOT AVBL                                               
DEVILS LAKE    CLEAR     64  48  55 S8        29.85S                  
FARGO          MOCLDY    60  58  92 CALM      29.87F                  
WAHPETON ARPT  CLOUDY    59  55  88 CALM      29.88S VSB 1/2          
$$

 *****  WEATHER ACROSS CENTRAL AND WESTERN NORTH DAKOTA  *****
  
CITY           SKY/WX    TMP DP  RH WIND       PRES   REMARKS
JAMESTOWN      MOCLDY    56  53  90 CALM      29.88F                  
BISMARCK       CLEAR     56  51  84 E5        29.88F                  
MINOT          CLEAR     59  47  64 SW8       29.84F                  
MINOT AFB      PTCLDY    51  46  83 S5        29.83F                  
GARRISON         N/A     57  47  69 CALM      29.86F                  
WILLISTON      CLEAR     47  43  86 CALM      29.84F                  
DICKINSON      CLEAR     55  46  71 S9        29.86F                  
HETTINGER      CLEAR     54  47  77 SE5       29.91F                  
$$

 *****  OTHER OBSERVATIONS NORTHEAST NORTH DAKOTA  *****
  
CITY           SKY/WX    TMP DP  RH WIND       PRES   REMARKS
WALHALLA       FAIR      61  46  59 MISG      29.83S                  
LANGDON        FAIR      46  45  93 S7        29.86S                  
CAVALIER       FAIR      54  48  82 SW5       29.83S                  
GRAFTON        FAIR      52  52 100 SW8       29.85S                  
CANDO          FAIR      50  45  81 S5        29.86R                  
FORT TOTTEN      N/A     56  47  71 SE5       29.95S                  
ROLLA          FAIR      48  43  81 SW7       29.85S                  
RUGBY          FAIR      52  48  87 CALM      29.85S                  
 ***** THE ABOVE OBSERVATIONS ARE NON NWS ARE NOT QUALITY
        CONTROLLED AND MAY MIS-REPORT RAIN FOR SNOW...
$$

 *****  OTHER OBSERVATIONS SOUTHEAST NORTH DAKOTA *****
  
CITY           SKY/WX    TMP DP  RH WIND       PRES   REMARKS
COOPERSTOWN    NOT AVBL                                               
VALLEY CITY    FAIR      55  55 100 CALM      29.89S                  
OAKES            N/A     59  59 100 CALM      29.89S                  
GWINNER          N/A     61  61 100 CALM      29.90S                  
SHEYENNE NWR     N/A     55  55  98 CALM      29.95S                  
BUFFALO        NOT AVBL                                               
WYNDMERE         N/A     59  57  94 SW2         N/A                   
 ***** THE ABOVE OBSERVATIONS ARE NON NWS ARE NOT QUALITY
       CONTROLLED AND MAY MIS-REPORT RAIN FOR SNOW...
$$

  *****  WEATHER ACROSS NORTHERN MINNESOTA  *****     
  
CITY           SKY/WX    TMP DP  RH WIND       PRES   REMARKS
FLAG ISLAND    PTCLDY    63  54  72 SW9       29.82S                  
WARROAD        PTCLDY    55  52  88 S7        29.85S                  
ROSEAU         PTCLDY    55  50  82 SW5       29.85R                  
HALLOCK        PTCLDY    52  46  82 CALM      29.83S                  
THF RVR FALLS  PTCLDY   N/A N/A N/A S3        29.86F                  
HALSTAD        NOT AVBL                                               
FOSSTON        FOG       55  55 100 S3        29.89F VSB<1/4          
BAUDETTE       PTCLDY    55  53  93 CALM      29.85S                  
WASKISH        PTCLDY    55  54  94 CALM      29.88S FOG              
CROOKSTON      PTCLDY    54  54 100 S5        29.87S                  
$$
  *****  WEATHER ACROSS CENTRAL AND WEST MINNESOTA  *****     
  
CITY           SKY/WX    TMP DP  RH WIND       PRES   REMARKS
BEMIDJI        FOG       58  58  99 CALM      29.89F VSB 3/4          
PARK RAPIDS    MOCLDY    63  61  93 CALM      29.90S FOG              
WADENA         FOG       63  63 100 CALM      29.89S VSB 3/4          
DETROIT LAKES  FOG       63  61  94 CALM      29.91S VSB 1/4          
MOORHEAD       MOCLDY    57  57 100 CALM      29.88F FOG              
FERGUS FALLS   CLOUDY    66  64  94 NE3       29.88S                  
ELBOW LAKE     FAIR      66  65  99 CALM      29.89R FOG              
MORRIS MN      MOCLDY    66  64  94 CALM      29.88S FOG              
STAPLES        MOCLDY    64  63  94 NW3       29.89S                  
WHEATON        FOG       59  57  94 CALM      29.91R VSB 3/4          
$$
  *****  WEATHER ELSEWHERE ACROSS MINNESOTA  *****     
  
CITY           SKY/WX    TMP DP  RH WIND       PRES   REMARKS
DULUTH         CLOUDY    72  68  87 SW8       29.89F                  
INTRNTL FALLS  PTCLDY    62  60  93 W5        29.86S                  
ELY            CLOUDY    68  66  94 CALM      29.89S                  
CLOQUET        CLOUDY    72  66  83 SW5       29.89S                  
BRAINERD       MOCLDY    69  67  93 CALM      29.89S                  
HIBBING        FOG       63  62  97 CALM      29.89R VSB 1/2          
ALEXANDRIA     CLOUDY    67  66  97 N5        29.90F                  
SAINT CLOUD    MOCLDY    69  67  93 CALM      29.88F                  
MINNEAPOLIS    MOCLDY    74  68  81 S5        29.91S                  
$$

  *****  WEATHER ACROSS SOUTH DAKOTA  *****
  
CITY           SKY/WX    TMP DP  RH WIND       PRES   REMARKS
SIOUX FALLS    PTCLDY    70  67  90 S3        29.90F                  
BROOKINGS      MOCLDY    70  66  88 SE5       29.92S                  
WATERTOWN      PTCLDY    66  63  90 CALM      29.89F                  
HURON          CLOUDY    65  64  97 CALM      29.87F                  
SISSETON         N/A     61  60  97 CALM      29.88S                  
ABERDEEN       CLOUDY    62  60  93 N5        29.89F                  
MITCHELL       CLOUDY    67  65  93 CALM      29.88F                  
PIERRE         MOCLDY    60  59  96 NE3       29.89S                  
MOBRIDGE       CLOUDY    60  59  96 E5        29.87F                  
RAPID CITY     CLEAR     57  55  93 SE5       29.90F                  
$$

  *****  SOME WEATHER IN NEARBY STATES *****
  
CITY           SKY/WX    TMP DP  RH WIND       PRES   REMARKS
GLASGOW MT     CLEAR     54  45  71 E7        29.82F                  
GREAT FALLS MT MOCLDY    59  38  45 S8        29.85F                  
CHEYENNE WY    CLEAR     55  46  71 CALM      30.14F                  
SCOTTSBLUFF NE CLEAR     59  55  87 N3        30.00F                  
OMAHA NE       CLEAR     72  69  90 SE9       29.93S                  
DES MOINES IA  CLEAR     73  67  81 S9        29.95S                  
DAVENPORT IA   CLEAR     73  70  90 S7        30.00F                  
CHICAGO IL     PTCLDY    71  68  90 S3        30.03S                  
EAU CLAIRE WI  MOCLDY    72  69  90 S3        29.93F                  
LA CROSSE WI   CLEAR     72  70  93 S7        29.94F                  
$$

  *****  SOME NATIONAL WEATHER *****
  
CITY           SKY/WX    TMP DP  RH WIND       PRES   REMARKS
LA GUARDIA NY  PTCLDY    79  67  66 N3        30.00R                  
RALEIGH NC     FOG       69  69 100 CALM      30.08S VSB 1/16         
ATLANTA GA     FAIR      71  67  87 CALM      30.11S                  
NEW ORLEANS LA PTCLDY    76  71  85 CALM      30.04F                  
OKLAHOMA CITY  CLEAR     72  64  76 S8        30.02S                  
ALBUQUERQUE NM CLOUDY    72  48  42 S6        30.17F                  
SALT LAKE CITY MOCLDY    73  44  35 S8        29.96S                  
LOS ANGELES CA MOCLDY    71  64  78 CALM      29.91S                  
BOISE ID       CLEAR     64  37  36 SE6       29.90S                  
SEATTLE WA     CLOUDY    63  53  70 S12G20    29.92S                  
$$

*** WEATHER ACROSS MANITOBA...SASKATCHEWAN AND ONTARIO ***
                ***ONTARIO***
  
CITY           SKY/WX    TMP DP  RH WIND       PRES   REMARKS
GERALDTON      MOCLDY    66  63  88 SW8       29.82R FOG              
THUNDER BAY    MOCLDY    63  61  94 SW2       29.84S                  
SIOUX LOOKOUT  PTCLDY    63  63 100 SW3       29.82S                  
TORONTO        CLOUDY    64  64 100 N5        30.06S FOG              
BIG TROUT LK   CLOUDY    61  61 100 W10G17    29.59R                  
PICKLE LAKE    NOT AVBL                                               
DRYDEN         CLEAR     63  61  94 SW7       29.82F                  
KENORA         PTCLDY    63  57  82 W8        29.83S                  
$$      
                *** MANITOBA***
  
CITY           SKY/WX    TMP DP  RH WIND       PRES   REMARKS
BRANDON        PTCLDY    52  46  82 SW2       29.81S                  
DAUPHIN        CLEAR     55  48  76 SW8       29.73S                  
ISLAND LAKE    CLEAR     59  57  94 W3        29.63F                  
PILOT MOUND      N/A     48  43  81 S5          N/A                   
THE PAS        PTCLDY    61  55  82 NW5       29.63S                  
THOMPSON       DRZL/FOG  55  55 100 CALM      29.60R VSB 1/8          
WINNIPEG       CLEAR     59  46  63 SW10      29.79S                  
LYNN LAKE      FOG       46  46 100 MISG      29.60S VSB 1/2          
CHURCHILL      CLOUDY    45  45 100 E7        29.64S                  
$$
                ***SASKATCHEWAN***
  
CITY           SKY/WX    TMP DP  RH WIND       PRES   REMARKS
ESTEVAN        PTCLDY    52  41  66 SW9       29.81F                  
KINDERSLEY     MOCLDY    54  41  62 S8        29.65F                  
LLOYDMINSTER   CLOUDY    57  41  54 SE10      29.58F                  
PRINCE ALBERT  CLOUDY    45  43  93 NE3       29.63F                  
REGINA         PTCLDY    54  46  76 SW10      29.75F                  
YORKTON        CLEAR     54  46  76 S7        29.72F                  

Return to Home page


Western Regional Climate Center, wrcc@dri.edu